Weather History for Jacksonville, IL

Change the Weather History Date:

Tuesday, February 5, 2013

  Actual Average (KSPI) Record (KSPI)
Temperature  
Mean Temperature 38 °F 28 °F  
Max Temperature 49 °F 37 °F 66 °F (1938)
Min Temperature 28 °F 20 °F -12 °F (1979)
Degree Days  
Heating Degree Days 26 37  
Month to date heating degree days 185  
Since 1 July heating degree days 3511  
Cooling Degree Days 0 0  
Month to date cooling degree days 0  
Year to date cooling degree days 0  
Moisture  
Dew Point 29 °F    
Average Humidity 76    
Maximum Humidity 93    
Minimum Humidity 55    
Precipitation  
Precipitation 0.00 in 0.05 in 1.38 in (2008)
Month to date precipitation 0.27  
Year to date precipitation 2.09  
Snow  
Snow 0.00 in 0.20 in 3.80 in (1905)
Month to date snowfall 1.1  
Since 1 July snowfall 13.7  
Snow Depth -    
Sea Level Pressure  
Sea Level Pressure 29.97 in    
Wind  
Wind Speed 6 mph (WSW)    
Max Wind Speed 18 mph    
Max Gust Speed 28 mph    
Visibility 10 miles    
Events      
T = Trace of Precipitation, MM = Missing Value Source: NWS Daily Summary

Daily Weather History Graph

Daily Weather History Graph

Search for Another Location

Airport:

Trip Planner

Search our weather history database for the weather conditions in past years. The results will help you decide how hot, cold, wet, or windy it might be!

Date:

Astronomy

Feb. 05, 2013 Rise Set
Actual Time 7:04 AM CST 5:25 PM CST
Civil Twilight 6:36 AM CST 5:54 PM CST
Nautical Twilight 6:04 AM CST 6:26 PM CST
Astronomical Twilight 5:32 AM CST 6:57 PM CST
Moon 2:46 AM CST (2/5) 12:43 PM CST (2/5)
Length of Visible Light 11h 17m
Length of Day
10h 21m
Waning Crescent, 26% of the Moon is Illuminated
Feb 5
Waning Crescent
Feb 10
New
Feb 17
First Quarter
Feb 25
Full
Mar 4
Last Quarter

Hourly Weather History & Observations

Time (CST) Temp. Windchill Dew Point Humidity Pressure Visibility Wind Dir Wind Speed Gust Speed Precip Events Conditions
12:15 AM 28.9 °F - 23.5 °F 80% 29.97 in 10.0 mi Calm Calm - N/A   Overcast
12:35 AM 28.8 °F - 23.4 °F 80% 29.96 in 10.0 mi Calm Calm - N/A   Overcast
12:55 AM 28.4 °F - 23.2 °F 81% 29.96 in 10.0 mi Calm Calm - N/A   Mostly Cloudy
1:15 AM 28.4 °F - 23.5 °F 82% 29.96 in 10.0 mi Calm Calm - N/A   Mostly Cloudy
1:35 AM 28.6 °F - 23.9 °F 83% 29.97 in 10.0 mi Calm Calm - N/A   Overcast
1:55 AM 28.4 °F - 24.4 °F 85% 29.97 in 10.0 mi Calm Calm - N/A   Overcast
2:15 AM 29.1 °F 25.4 °F 24.3 °F 82% 29.97 in 10.0 mi WSW 3.5 mph - N/A   Overcast
2:35 AM 29.3 °F - 24.3 °F 81% 29.97 in 10.0 mi Calm Calm - N/A   Overcast
2:55 AM 29.3 °F - 24.3 °F 81% 29.97 in 10.0 mi Calm Calm - N/A   Mostly Cloudy
3:15 AM 29.1 °F 24.1 °F 24.4 °F 83% 29.95 in 10.0 mi SSW 4.6 mph - N/A   Overcast
3:35 AM 29.1 °F 25.4 °F 24.1 °F 81% 29.94 in 10.0 mi SSW 3.5 mph - N/A   Mostly Cloudy
3:55 AM 28.9 °F 25.2 °F 24.1 °F 82% 29.93 in 10.0 mi South 3.5 mph - N/A   Scattered Clouds
4:15 AM 29.1 °F 24.1 °F 24.3 °F 82% 29.93 in 10.0 mi South 4.6 mph - N/A   Mostly Cloudy
4:35 AM 29.3 °F 22.3 °F 24.4 °F 82% 29.93 in 10.0 mi South 6.9 mph - N/A   Overcast
4:55 AM 29.3 °F 23.2 °F 24.8 °F 83% 29.94 in 10.0 mi South 5.8 mph - N/A   Mostly Cloudy
5:15 AM 29.3 °F 24.3 °F 25.0 °F 84% 29.93 in 10.0 mi South 4.6 mph - N/A   Mostly Cloudy
5:35 AM 29.7 °F 24.7 °F 25.2 °F 83% 29.93 in 10.0 mi South 4.6 mph - N/A   Mostly Cloudy
5:55 AM 29.8 °F 23.9 °F 25.5 °F 84% 29.93 in 10.0 mi South 5.8 mph - N/A   Mostly Cloudy
6:15 AM 30.0 °F 25.2 °F 25.7 °F 84% 29.93 in 10.0 mi SSW 4.6 mph - N/A   Overcast
6:35 AM 30.2 °F 22.6 °F 25.7 °F 83% 29.92 in 10.0 mi South 8.1 mph - N/A   Overcast
6:55 AM 30.2 °F 21.9 °F 25.7 °F 83% 29.93 in 10.0 mi SSW 9.2 mph - N/A   Overcast
7:15 AM 30.2 °F 22.6 °F 25.9 °F 84% 29.93 in 10.0 mi SSW 8.1 mph - N/A   Overcast
7:35 AM 30.2 °F 22.6 °F 26.2 °F 85% 29.92 in 7.0 mi South 8.1 mph - N/A   Mostly Cloudy
7:55 AM 30.6 °F 23.1 °F 26.4 °F 85% 29.92 in 7.0 mi SSW 8.1 mph - N/A   Mostly Cloudy
8:15 AM 30.9 °F 22.8 °F 26.8 °F 85% 29.92 in 7.0 mi SSW 9.2 mph - N/A   Scattered Clouds
8:35 AM 31.5 °F 23.5 °F 27.1 °F 84% 29.92 in 7.0 mi SSW 9.2 mph - N/A   Mostly Cloudy
8:55 AM 32.0 °F 23.6 °F 27.5 °F 83% 29.91 in 7.0 mi SSW 10.4 mph - N/A   Scattered Clouds
9:15 AM 32.4 °F 24.0 °F 28.0 °F 84% 29.92 in 7.0 mi SW 10.4 mph - N/A   Scattered Clouds
9:55 AM 34.7 °F 25.5 °F 28.9 °F 79% 29.92 in 7.0 mi SW 13.8 mph - N/A   Clear
10:15 AM 36.3 °F 28.0 °F 29.8 °F 77% 29.92 in 7.0 mi SW 12.7 mph - N/A   Clear
10:35 AM 37.4 °F 28.2 °F 30.2 °F 75% 29.91 in 10.0 mi SW 16.1 mph - N/A   Clear
10:55 AM 38.5 °F 29.2 °F 30.4 °F 73% 29.90 in 10.0 mi SW 17.3 mph 21.9 mph N/A   Clear
11:15 AM 39.2 °F 32.5 °F 30.6 °F 71% 29.90 in 10.0 mi WSW 10.4 mph 18.4 mph N/A   Clear
11:35 AM 40.3 °F 33.0 °F 31.5 °F 71% 29.89 in 10.0 mi WSW 12.7 mph - N/A   Clear
11:55 AM 41.9 °F 34.3 °F 31.8 °F 67% 29.88 in 10.0 mi SW 15.0 mph 19.6 mph N/A   Clear
12:15 PM 42.8 °F 35.4 °F 32.0 °F 66% 29.88 in 10.0 mi SW 15.0 mph 20.7 mph N/A   Clear
12:35 PM 44.6 °F 38.4 °F 32.0 °F 61% 29.88 in 10.0 mi WSW 12.7 mph 18.4 mph N/A   Clear
12:55 PM 45.1 °F 38.8 °F 33.1 °F 63% 29.87 in 10.0 mi SW 13.8 mph 19.6 mph N/A   Clear
1:15 PM 46.9 °F - 33.3 °F 59% 29.88 in 10.0 mi West 13.8 mph 18.4 mph N/A   Clear
1:35 PM 47.1 °F - 33.3 °F 59% 29.88 in 10.0 mi West 13.8 mph - N/A   Clear
1:55 PM 47.5 °F - 33.4 °F 58% 29.87 in 10.0 mi West 13.8 mph - N/A   Clear
2:15 PM 48.7 °F - 34.0 °F 57% 29.88 in 10.0 mi West 16.1 mph 20.7 mph N/A   Clear
2:35 PM 49.1 °F - 33.4 °F 55% 29.89 in 10.0 mi West 15.0 mph - N/A   Clear
2:55 PM 49.3 °F - 33.6 °F 55% 29.90 in 10.0 mi West 16.1 mph 21.9 mph N/A   Clear
3:15 PM 48.9 °F - 33.3 °F 55% 29.91 in 10.0 mi WNW 18.4 mph 27.6 mph N/A   Clear
3:35 PM 48.2 °F - 33.8 °F 58% 29.92 in 10.0 mi West 18.4 mph 23.0 mph N/A   Clear
3:55 PM 48.2 °F - 33.6 °F 57% 29.93 in 10.0 mi WNW 15.0 mph 19.6 mph N/A   Clear
4:15 PM 46.8 °F - 32.9 °F 59% 29.94 in 10.0 mi NW 15.0 mph 19.6 mph N/A   Clear
4:35 PM 46.4 °F 40.4 °F 32.0 °F 57% 29.95 in 10.0 mi WNW 13.8 mph 18.4 mph N/A   Clear
4:55 PM 44.4 °F 39.0 °F 32.4 °F 63% 29.96 in 10.0 mi WNW 10.4 mph - N/A   Clear
5:15 PM 43.0 °F 38.2 °F 32.0 °F 65% 29.98 in 10.0 mi WNW 8.1 mph - N/A   Clear
5:35 PM 40.3 °F 33.9 °F 32.0 °F 72% 29.98 in 10.0 mi NW 10.4 mph - N/A   Clear
5:55 PM 39.9 °F 33.9 °F 32.0 °F 73% 29.99 in 10.0 mi NW 9.2 mph - N/A   Clear
6:15 PM 39.0 °F 32.8 °F 32.0 °F 76% 30.01 in 10.0 mi NW 9.2 mph - N/A   Clear
6:35 PM 39.6 °F 33.0 °F 32.2 °F 75% 30.02 in 10.0 mi NW 10.4 mph - N/A   Clear
6:55 PM 39.2 °F 31.6 °F 32.0 °F 75% 30.03 in 10.0 mi NW 12.7 mph - N/A   Clear
7:15 PM 38.5 °F 32.1 °F 32.0 °F 78% 30.04 in 10.0 mi NW 9.2 mph - N/A   Clear
7:35 PM 38.5 °F 31.1 °F 31.3 °F 75% 30.05 in 10.0 mi NW 11.5 mph - N/A   Clear
7:55 PM 39.2 °F 32.5 °F 30.9 °F 72% 30.06 in 10.0 mi NNW 10.4 mph - N/A   Scattered Clouds
8:15 PM 37.4 °F 31.4 °F 31.3 °F 79% 30.07 in 10.0 mi NNW 8.1 mph - N/A   Scattered Clouds
8:35 PM 35.4 °F 30.5 °F 30.4 °F 82% 30.07 in 10.0 mi NW 5.8 mph - N/A   Clear
8:55 PM 34.2 °F 29.0 °F 29.7 °F 84% 30.08 in 10.0 mi NW 5.8 mph - N/A   Clear
9:15 PM 33.6 °F 28.4 °F 29.1 °F 84% 30.09 in 10.0 mi NW 5.8 mph - N/A   Clear
9:35 PM 32.7 °F - 28.8 °F 85% 30.10 in 10.0 mi Calm Calm - N/A   Clear
9:55 PM 32.0 °F - 28.8 °F 88% 30.10 in 10.0 mi Calm Calm - N/A   Clear
10:15 PM 31.5 °F 28.1 °F 28.9 °F 90% 30.11 in 10.0 mi WSW 3.5 mph - N/A   Clear
10:35 PM 31.8 °F - 28.9 °F 89% 30.11 in 10.0 mi Calm Calm - N/A   Clear
10:55 PM 31.1 °F 26.4 °F 27.7 °F 87% 30.10 in 10.0 mi NW 4.6 mph - N/A   Clear
11:15 PM 29.7 °F 24.7 °F 27.7 °F 92% 30.12 in 7.0 mi SSW 4.6 mph - N/A   Clear
11:35 PM 31.1 °F 27.7 °F 29.3 °F 93% 30.12 in 7.0 mi SW 3.5 mph - N/A   Clear
11:55 PM 31.1 °F 25.4 °F 29.1 °F 92% 30.13 in 7.0 mi SSW 5.8 mph - N/A   Clear